TimeCDT,TemperatureF,Dew PointF,Humidity,Sea Level PressureIn,VisibilityMPH,Wind Direction,Wind SpeedMPH,Gust SpeedMPH,PrecipitationIn,Events,Conditions,WindDirDegrees,DateUTC
12:53 AM,54.0,37.0,53,30.02,10.0,NNW,26.5,33.4,N/A,,Clear,330,2013-03-25 05:53:00
1:53 AM,52.0,35.1,53,30.04,10.0,NNW,25.3,29.9,N/A,,Clear,340,2013-03-25 06:53:00
2:53 AM,50.0,34.0,54,30.05,10.0,NNW,28.8,36.8,N/A,,Clear,340,2013-03-25 07:53:00
3:53 AM,48.0,30.9,52,30.06,10.0,North,23.0,34.5,N/A,,Clear,350,2013-03-25 08:53:00
4:53 AM,46.9,32.0,56,30.07,10.0,North,19.6,28.8,N/A,,Clear,350,2013-03-25 09:53:00
5:53 AM,46.0,30.9,56,30.09,10.0,North,17.3,27.6,N/A,,Clear,350,2013-03-25 10:53:00
6:53 AM,46.0,32.0,58,30.12,10.0,North,19.6,-,N/A,,Clear,350,2013-03-25 11:53:00
7:53 AM,46.0,32.0,58,30.15,10.0,North,19.6,27.6,N/A,,Clear,350,2013-03-25 12:53:00
8:53 AM,46.9,32.0,56,30.17,10.0,North,18.4,-,N/A,,Clear,350,2013-03-25 13:53:00
9:53 AM,48.9,30.9,50,30.19,10.0,NW,17.3,-,N/A,,Clear,320,2013-03-25 14:53:00
10:53 AM,50.0,30.9,48,30.21,10.0,NNW,18.4,-,N/A,,Clear,330,2013-03-25 15:53:00
11:53 AM,54.0,30.9,41,30.20,10.0,NW,18.4,-,N/A,,Clear,320,2013-03-25 16:53:00
12:53 PM,57.0,28.9,34,30.18,10.0,NNW,21.9,25.3,N/A,,Clear,330,2013-03-25 17:53:00
1:53 PM,59.0,27.0,29,30.16,10.0,NW,17.3,-,N/A,,Clear,320,2013-03-25 18:53:00
2:53 PM,62.1,27.0,26,30.13,10.0,NW,20.7,-,N/A,,Clear,320,2013-03-25 19:53:00
3:53 PM,63.0,26.1,25,30.10,10.0,NNW,21.9,-,N/A,,Clear,330,2013-03-25 20:53:00
4:53 PM,63.0,28.9,28,30.10,10.0,WNW,17.3,-,N/A,,Clear,300,2013-03-25 21:53:00
5:53 PM,63.0,30.0,29,30.11,10.0,NW,25.3,29.9,N/A,,Clear,310,2013-03-25 22:53:00
6:53 PM,61.0,28.0,29,30.13,10.0,NW,24.2,-,N/A,,Clear,320,2013-03-25 23:53:00
7:53 PM,60.1,28.9,31,30.16,10.0,NW,19.6,-,N/A,,Clear,310,2013-03-26 00:53:00
8:53 PM,60.1,28.9,31,30.18,10.0,NW,16.1,-,N/A,,Clear,310,2013-03-26 01:53:00
9:53 PM,59.0,30.0,33,30.20,10.0,NNW,16.1,-,N/A,,Clear,330,2013-03-26 02:53:00
10:53 PM,57.9,28.0,32,30.23,10.0,NNW,19.6,-,N/A,,Clear,330,2013-03-26 03:53:00
11:53 PM,55.0,30.0,38,30.25,10.0,North,23.0,28.8,N/A,,Clear,360,2013-03-26 04:53:00